Regional Weather Roundup
Issued by NWS State College, PA

Home | Current Version | Previous Version | Text Only | Print | Product List | Glossary Off
Versions: 1 2 3 4 5 6 7 8 9 10 11 12 13 14 15 16 17 18 19 20 21 22 23 24 25 26 27 28 29 30 31 32 33 34 35 36 37 38 39 40 41 42 43 44 45 46 47 48 49 50

632
ASUS41 KCTP 261110
RWRCTP

REGIONAL WEATHER ROUNDUP
NATIONAL WEATHER SERVICE STATE COLLEGE PA
700 AM EDT SUN MAR 26 2017

Note: "fair" indicates few or no clouds below 12,000 feet with no
significant weather and/or obstructions to visibility.

* = STATION THAT DOES NOT REPORT PRECIPITATION /E.G. RAIN...SNOW...ETC/
    THUNDER OR FOG.

PAZ002>004-007>009-013>016-020>023-029>032-261200-
WESTERN PENNSYLVANIA

CITY           SKY/WX    TMP DP  RH WIND       PRES   REMARKS
ERIE           CLOUDY    37  35  92 NE7       30.09F
MEADVILLE      PTCLDY    50  43  77 VRB5      30.08S
FRANKLIN*      PTCLDY    46  41  81 SE13G20   30.13S
NEW CASTLE     FAIR      55  47  74 VRB6      30.09S
BEAVER COUNTY  NOT AVBL
BUTLER*        PTCLDY    52  45  76 E13       30.11F
PITTSBURGH INT MOCLDY    56  50  80 SE8       30.07S
PITTSBURGH     CLOUDY    57  46  66 SE9       30.09S
INDIANA*       CLOUDY    50  46  87 E10G17    30.18F
LATROBE        PTCLDY    54  48  82 E9        30.14S
WASHINGTON CO* CLOUDY    57  46  67 SE9       30.09F
$$

PAZ004>006-010>012-017>019-024>028-033>037-041-042-045-046-049>053-261200-
CENTRAL PENNSYLVANIA

CITY           SKY/WX    TMP DP  RH WIND       PRES   REMARKS
BRADFORD       CLOUDY    41  41 100 SE13      30.19R FOG
DUBOIS         CLOUDY    44  40  85 E14       30.17S FOG
CLEARFIELD       N/A    N/A N/A N/A MISG      30.23S
JOHNSTOWN      CLOUDY    46  44  93 E9        30.17S FOG
ALTOONA        CLOUDY    48  42  80 E5        30.24R
STATE COLLEGE  CLOUDY    43  39  87 E9        30.26S FOG
WILLIAMSPORT   CLOUDY    43  36  76 E16       30.33R
SELINSGROVE    CLOUDY    43  38  82 SE5       30.34R
FT INDIANTOWN  CLOUDY    41  41  99 E8        30.34S
CAPITAL CITY   CLOUDY    46  38  73 E9        30.33S
HARRISBURG     CLOUDY    45  40  82 E9        30.33S
YORK           CLOUDY    44  40  85 E8        30.32R
$$

PAZ038>040-043-044-047-048-054-055-060>062-067>071-261200-
EASTERN PENNSYLVANIA

CITY           SKY/WX    TMP DP  RH WIND       PRES   REMARKS
SCRANTON       CLOUDY    37  33  85 NE6       30.34R
MOUNT POCONO   FOG       30  30 100 E13       30.32S VSB 1/4
ALLENTOWN      CLOUDY    39  34  82 E10       30.39R
QUAKERTOWN*    CLOUDY    39  34  81 E7        30.38R
READING        CLOUDY    43  38  82 E6        30.35R
LANCASTER      CLOUDY    44  40  85 E13       30.33S
COATESVILLE    CLOUDY    41  37  87 E16       30.35R
POTTSTOWN      CLOUDY    40  35  83 VRB6      30.38R
BLUE BELL      CLOUDY    39  37  93 E9        30.37R
DOYLESTOWN     CLOUDY    39  36  89 VRB3      30.38R
WILLOW GROVE   NOT AVBL
NORTH PHILA    CLOUDY    43  37  79 E14       30.40R
PHILADELPHIA   CLOUDY    43  37  79 E14       30.38R
$$




USA.gov is the U.S. government's official web portal to all federal, state and local government web resources and services.